Quincy, IL

12:44 PM CDT on May 27, 2018 (GMT -0500)
Quincy Regional-Baldwin

Weather History for KUIN - November, 2012

Change the Weather History Date:

Friday, November 23, 2012

  Actual Average Record
Temperature  
Mean Temperature 34 °F 39 °F  
Max Temperature 43 °F 47 °F 71 °F (1931)
Min Temperature 24 °F 30 °F 2 °F (1950)
Degree Days  
Heating Degree Days 31 26  
Month to date heating degree days 463 479  
Since 1 July heating degree days 939 903  
Cooling Degree Days 0 0  
Month to date cooling degree days 2 0  
Year to date cooling degree days 1575 1093  
Moisture  
Dew Point 21 °F    
Average Humidity 60    
Maximum Humidity 76    
Minimum Humidity 44    
Precipitation  
Precipitation 0.00 in 0.10 in 0.71 in (2014)
Month to date precipitation 1.04 2.34  
Year to date precipitation 24.26 34.40  
Sea Level Pressure  
Sea Level Pressure 30.28 in    
Wind  
Wind Speed 15 mph (WNW)    
Max Wind Speed 29 mph    
Max Gust Speed 36 mph    
Visibility 10 miles    
Events      
T = Trace of Precipitation, MM = Missing Value Source: NWS Daily Summary

Daily Weather History Graph

Daily Weather History Graph

Search for Another Location

Airport or City:

Astronomy

Nov. 23, 2012 Rise Set
Actual Time 6:59 AM CST 4:43 PM CST
Civil Twilight 6:29 AM CST 5:12 PM CST
Nautical Twilight 5:56 AM CST 5:45 PM CST
Astronomical Twilight 5:24 AM CST 6:18 PM CST
Moon 1:57 PM CST (11/23) 2:18 AM CST (11/23)
Length of Visible Light 10h 42m
Length of Day
9h 43m
Waxing Gibbous, 80% of the Moon is Illuminated
Nov 23
Waxing Gibbous
Nov 28
Full
Dec 6
Last Quarter
Dec 13
New
Dec 19
First Quarter

Hourly Weather History & Observations

Time (CST) Temp. Windchill Dew Point Humidity Pressure Visibility Wind Dir Wind Speed Gust Speed Precip Events Conditions
12:54 AM 41.0 °F 33.5 °F 33.1 °F 73% 30.14 in 10.0 mi WNW 13.8 mph - N/A   Clear
1:54 AM 39.9 °F 34.5 °F 32.0 °F 73% 30.14 in 10.0 mi WNW 8.1 mph - N/A   Clear
2:54 AM 39.0 °F 34.8 °F 30.9 °F 73% 30.14 in 10.0 mi West 5.8 mph - N/A   Clear
3:54 AM 37.9 °F 31.5 °F 28.9 °F 70% 30.14 in 10.0 mi West 9.2 mph - N/A   Clear
4:54 AM 39.0 °F 31.4 °F 30.0 °F 70% 30.15 in 10.0 mi WNW 12.7 mph - N/A   Overcast
5:54 AM 37.9 °F 28.5 °F 27.0 °F 65% 30.18 in 10.0 mi NW 17.3 mph 28.8 mph N/A   Overcast
6:54 AM 37.0 °F 26.4 °F 21.9 °F 54% 30.20 in 10.0 mi NW 20.7 mph 32.2 mph N/A   Overcast
7:54 AM 34.0 °F 22.1 °F 19.9 °F 56% 30.25 in 10.0 mi WNW 21.9 mph 28.8 mph N/A   Clear
8:54 AM 33.1 °F 21.9 °F 19.9 °F 59% 30.27 in 10.0 mi WNW 18.4 mph 31.1 mph N/A   Clear
9:23 AM 33.8 °F 20.8 °F 19.4 °F 56% 30.27 in 2.0 mi WNW 26.5 mph 32.2 mph N/A   Haze
9:32 AM 33.8 °F 20.8 °F 19.4 °F 56% 30.27 in 10.0 mi WNW 26.5 mph 34.5 mph N/A   Clear
9:54 AM 35.1 °F 23.8 °F 19.0 °F 52% 30.30 in 10.0 mi WNW 20.7 mph 34.5 mph N/A   Partly Cloudy
10:54 AM 36.0 °F 24.7 °F 17.1 °F 46% 30.31 in 10.0 mi WNW 21.9 mph 28.8 mph N/A   Clear
11:54 AM 37.0 °F 25.1 °F 18.0 °F 46% 30.31 in 10.0 mi NW 26.5 mph 33.4 mph N/A   Clear
12:54 PM 37.0 °F 25.6 °F 18.0 °F 46% 30.31 in 10.0 mi NW 24.2 mph 29.9 mph N/A   Clear
1:54 PM 36.0 °F 24.7 °F 18.0 °F 48% 30.31 in 10.0 mi WNW 21.9 mph 31.1 mph N/A   Clear
2:54 PM 36.0 °F 25.6 °F 18.0 °F 48% 30.31 in 10.0 mi NW 18.4 mph 26.5 mph N/A   Clear
3:54 PM 33.1 °F 22.2 °F 17.1 °F 52% 30.34 in 10.0 mi NW 17.3 mph - N/A   Clear
4:54 PM 30.9 °F 19.8 °F 17.1 °F 57% 30.35 in 10.0 mi NW 16.1 mph - N/A   Clear
5:54 PM 30.0 °F 19.5 °F 17.1 °F 59% 30.37 in 10.0 mi NW 13.8 mph - N/A   Clear
6:54 PM 28.0 °F 19.3 °F 17.1 °F 63% 30.37 in 10.0 mi WNW 9.2 mph - N/A   Clear
7:54 PM 28.0 °F 18.6 °F 17.1 °F 63% 30.37 in 10.0 mi WNW 10.4 mph - N/A   Clear
8:54 PM 27.0 °F 17.3 °F 17.1 °F 66% 30.37 in 10.0 mi WNW 10.4 mph - N/A   Clear
9:54 PM 26.1 °F 17.6 °F 17.1 °F 69% 30.37 in 10.0 mi WNW 8.1 mph - N/A   Clear
10:54 PM 25.0 °F 16.3 °F 16.0 °F 69% 30.37 in 10.0 mi NW 8.1 mph - N/A   Clear
11:54 PM 24.1 °F 14.4 °F 16.0 °F 71% 30.36 in 10.0 mi NW 9.2 mph - N/A   Clear